GW3736 Weather Reports


time (UTC)temp
F
wind
direction
speed
knots
gust
knots
rain 1hr
in
rain 24hr
in
rain mn
in
humidity
%
barometer
mb
20260905112527 68 98 1.7 3.5 0.00 0.11 0.00 82 1011.0
20260905111524 68 135 1.7 5.2 0.00 0.11 0.00 83 1011.0
20260905110521 68 111 1.7 5.2 0.00 0.11 0.00 83 1010.9
20260905105518 69 113 2.6 7.8 0.00 0.11 0.00 83 1011.0
20260905104537 69 118 0.9 2.6 0.00 0.11 0.00 84 1011.1
20260905103532 69 115 2.6 6.1 0.00 0.11 0.00 84 1011.0
20260905102529 69 117 0.0 2.6 0.00 0.11 0.00 84 1010.9
20260905101526 69 123 1.7 5.2 0.00 0.11 0.00 84 1010.8
20260905100523 69 126 1.7 5.2 0.00 0.11 0.00 84 1010.8
20260905095520 69 240 0.9 3.5 0.00 0.11 0.00 84 1011.1
20260905094517 69 241 0.0 1.7 0.00 0.11 0.00 84 1011.1
20260905093534 69 240 0.0 0.9 0.00 0.11 0.00 84 1010.9
20260905092532 69 196 0.0 1.7 0.00 0.11 0.00 84 1010.8
20260905091527 69 172 0.0 1.7 0.00 0.11 0.00 84 1010.8
20260905090524 69 171 0.9 2.6 0.00 0.11 0.00 84 1010.5
20260905085521 69 38 0.0 0.9 0.00 0.11 0.00 84 1010.3
20260905084518 69 17 1.7 5.2 0.00 0.11 0.00 84 1010.0
20260905083515 69 44 1.7 7.0 0.00 0.11 0.00 85 1009.9
20260905082532 69 27 1.7 6.1 0.00 0.11 0.00 85 1010.3
20260905081529 69 71 0.9 6.1 0.00 0.11 0.00 85 1010.3
20260905080526 69 115 0.9 3.5 0.00 0.11 0.00 85 1010.3
20260905075522 69 121 0.0 1.7 0.00 0.11 0.00 85 1010.4
20260905074520 69 112 0.9 2.6 0.00 0.11 0.00 86 1010.4
20260905073516 69 117 0.9 2.6 0.00 0.11 0.00 86 1010.7
20260905072533 69 119 0.9 2.6 0.00 0.11 0.00 86 1010.2
20260905071530 69 108 0.9 2.6 0.00 0.11 0.00 86 1010.0
20260905070547 70 90 0.9 5.2 0.00 0.11 0.00 86 1009.8
20260905065544 70 92 0.9 2.6 0.00 0.11 0.00 86 1009.9
20260905064520 70 90 0.9 5.2 0.00 0.11 0.00 86 1009.9
20260905063517 70 90 0.9 2.6 0.00 0.11 0.00 87 1010.1
20260905062534 70 87 0.9 3.5 0.00 0.11 0.00 87 1010.3
20260905061531 70 86 0.9 5.2 0.00 0.11 0.00 87 1010.5
20260905060528 70 90 0.9 1.7 0.00 0.11 0.00 87 1010.7
20260905055525 70 93 0.0 1.7 0.00 0.11 0.00 87 1010.7
20260905054521 70 91 0.0 1.7 0.00 0.11 0.00 87 1010.4
20260905053518 70 89 0.9 2.6 0.00 0.11 0.00 87 1010.3
20260905052557 70 89 0.9 1.7 0.00 0.11 0.00 87 1010.3
20260905051532 70 89 0.9 2.6 0.00 0.11 0.00 86 1010.5
20260905050529 70 89 0.0 2.6 0.00 0.11 0.00 86 1010.7
20260905045526 71 87 0.0 1.7 0.00 0.11 0.00 86 1010.8
20260905044524 71 88 0.0 0.9 0.00 0.11 0.00 86 1010.7
20260905043519 71 88 0.0 1.7 0.00 0.11 0.00 86 1010.7
20260905042516 71 92 0.0 0.9 0.00 0.11 0.00 86 1010.8
20260905041613 71 91 0.0 1.7 0.00 0.11 0.00 86 1010.8
20260905040549 71 91 0.0 0.9 0.00 0.11 0.00 86 1011.0
20260905035528 71 91 0.0 1.7 0.00 0.11 0.11 86 1010.9
20260905034523 71 91 0.0 1.7 0.00 0.11 0.11 86 1011.2
20260905033520 71 89 0.9 3.5 0.00 0.11 0.11 86 1011.3
20260905032516 72 85 1.7 3.5 0.00 0.11 0.11 86 1011.4
20260905031554 72 92 0.0 1.7 0.00 0.11 0.11 86 1011.2
20260905030531 72 91 0.9 1.7 0.00 0.11 0.11 86 1011.1
20260905025527 72 85 0.9 2.6 0.00 0.11 0.11 86 1011.2
20260905024524 72 85 1.7 6.1 0.00 0.11 0.11 86 1011.3
20260905023601 73 93 0.9 1.7 0.00 0.11 0.11 86 1011.2
20260905022518 73 94 0.0 0.9 0.00 0.11 0.11 86 1011.1
20260905021535 73 92 0.9 1.7 0.00 0.11 0.11 86 1011.1
20260905020532 73 92 0.0 1.7 0.00 0.11 0.11 86 1011.3
20260905015529 73 92 0.0 1.7 0.00 0.11 0.11 86 1011.2
20260905014526 73 92 0.0 1.7 0.00 0.11 0.11 86 1011.3
20260905013523 73 95 0.0 1.7 0.00 0.11 0.11 85 1011.1
20260905012520 73 96 0.9 1.7 0.00 0.11 0.11 85 1011.1
20260905011516 73 96 0.9 1.7 0.00 0.11 0.11 85 1011.0
20260905010533 73 93 0.9 2.6 0.00 0.11 0.11 85 1010.9
20260905005530 74 89 0.9 3.5 0.00 0.11 0.11 85 1010.9
20260905004527 74 97 0.9 2.6 0.00 0.11 0.11 84 1011.0
20260905003524 74 98 0.9 3.5 0.00 0.11 0.11 84 1010.9
20260905002521 75 95 1.7 5.2 0.00 0.11 0.11 83 1010.8
20260905001538 76 108 2.6 6.1 0.00 0.11 0.11 83 1010.6
20260905000535 76 105 1.7 5.2 0.00 0.11 0.11 83 1010.6
20260904235613 76 120 0.0 0.9 0.00 0.11 0.11 83 1010.5
20260904234549 76 117 0.0 1.7 0.00 0.11 0.11 82 1010.5
20260904233526 77 118 0.0 0.9 0.00 0.11 0.11 82 1010.3
20260904232522 77 122 0.0 1.7 0.00 0.11 0.11 81 1010.1
20260904231519 77 120 0.9 3.5 0.00 0.11 0.11 81 1010.0
20260904230518 77 119 1.7 3.5 0.00 0.11 0.11 80 1009.8
20260904225533 78 244 0.0 1.7 0.00 0.11 0.11 80 1009.9
20260904224550 78 243 0.0 1.7 0.00 0.11 0.11 80 1009.8
20260904223527 78 243 0.9 1.7 0.00 0.11 0.11 80 1009.7
20260904222524 78 243 0.9 2.6 0.00 0.11 0.11 79 1009.6
20260904221521 78 243 0.9 2.6 0.00 0.11 0.11 79 1009.7
20260904220518 78 240 1.7 3.5 0.00 0.11 0.11 79 1009.7
20260904215535 78 243 1.7 5.2 0.00 0.11 0.11 80 1009.6
20260904214532 78 243 0.9 2.6 0.00 0.11 0.11 80 1009.6
20260904213529 78 243 2.6 5.2 0.00 0.11 0.11 80 1009.4
20260904212526 78 242 2.6 5.2 0.00 0.11 0.11 82 1009.1
20260904211523 78 244 2.6 7.0 0.00 0.11 0.11 83 1009.1
20260904210520 78 242 1.7 5.2 0.00 0.11 0.11 83 1009.0
20260904205557 78 242 3.5 7.0 0.00 0.11 0.11 84 1009.0
20260904204534 77 240 1.7 5.2 0.00 0.13 0.11 85 1008.9
20260904203530 77 242 3.5 7.0 0.00 0.15 0.11 86 1008.9
20260904202527 77 237 2.6 6.1 0.00 0.16 0.11 87 1009.0
20260904201546 77 241 1.7 5.2 0.00 0.24 0.11 87 1009.1
20260904200541 77 239 2.6 5.2 0.00 0.24 0.11 88 1009.3
20260904195518 77 235 3.5 6.1 0.00 0.24 0.11 89 1009.4
20260904194536 77 239 3.5 6.1 0.00 0.24 0.11 89 1009.6
20260904193532 76 238 3.5 6.1 0.00 0.24 0.11 90 1009.7
20260904192528 76 234 3.5 8.7 0.00 0.24 0.11 91 1009.9
20260904191526 77 226 2.6 6.1 0.00 0.24 0.11 92 1010.0
20260904190522 76 229 2.6 5.2 0.00 0.24 0.11 92 1010.0
20260904185539 76 232 3.5 7.8 0.00 0.24 0.11 93 1009.9
20260904184516 76 229 1.7 6.1 0.00 0.24 0.11 93 1010.0
20260904183553 75 214 2.6 6.1 0.00 0.24 0.11 93 1010.3
20260904182550 75 217 1.7 5.2 0.00 0.24 0.11 93 1010.2
20260904181527 75 190 0.9 2.6 0.00 0.24 0.11 93 1010.3
20260904180524 75 194 1.7 5.2 0.00 0.24 0.11 93 1010.4
20260904175521 75 146 1.7 5.2 0.00 0.24 0.11 93 1010.3
20260904174518 75 158 2.6 6.1 0.00 0.24 0.11 93 1010.5
20260904173535 74 171 1.7 3.5 0.00 0.24 0.11 93 1010.6
20260904172532 73 193 1.7 5.2 0.00 0.24 0.11 93 1011.0
20260904171529 73 213 1.7 3.5 0.00 0.24 0.11 93 1010.9
20260904170526 72 219 1.7 2.6 0.00 0.26 0.11 93 1011.0
20260904165522 72 140 1.7 2.6 0.00 0.26 0.11 93 1010.9
20260904164520 71 216 0.9 2.6 0.00 0.26 0.11 93 1011.1
20260904163518 71 219 1.7 3.5 0.00 0.26 0.11 93 1011.5
20260904162553 71 217 0.9 3.5 0.00 0.27 0.11 93 1011.4
20260904161532 72 217 1.7 2.6 0.01 0.28 0.11 93 1011.6
20260904160527 72 215 0.9 2.6 0.02 0.33 0.11 93 1011.8
20260904155524 71 149 1.7 3.5 0.04 0.35 0.11 93 1012.0
20260904154521 71 198 1.7 2.6 0.04 0.35 0.11 93 1012.4
20260904153518 70 210 0.9 2.6 0.04 0.35 0.11 93 1012.5
20260904152535 70 133 1.7 3.5 0.04 0.35 0.11 93 1012.2
20260904151552 70 147 0.0 3.5 0.04 0.34 0.10 93 1013.1
20260904150529 70 215 0.9 1.7 0.03 0.33 0.08 93 1013.3
20260904145526 69 218 1.7 3.5 0.05 0.31 0.07 93 1013.1
20260904144523 69 219 0.0 1.7 0.06 0.31 0.07 93 1012.7
20260904143520 69 221 0.0 1.7 0.06 0.31 0.06 93 1012.6
20260904142538 69 0.0 0.0 0.06 0.31 0.06 93 1012.5
20260904140530 69 224 0.0 1.7 0.06 0.30 0.06 93 1012.4
20260904135548 69 0.0 0.0 0.02 0.27 0.02 93 1012.7
20260904134524 69 224 0.0 1.7 0.01 0.26 0.01 93 1012.9
20260904133521 69 224 0.0 0.9 0.01 0.25 0.01 93 1012.7
20260904132519 69 224 0.9 1.7 0.00 0.25 0.00 93 1012.9
20260904131534 69 223 0.0 0.9 0.00 0.25 0.00 92 1012.7
20260904130532 69 223 0.0 0.9 0.00 0.24 0.00 92 1012.3
20260904125549 69 221 0.0 0.9 0.00 0.24 0.00 92 1012.1
20260904124547 69 123 0.9 2.6 0.00 0.24 0.00 93 1012.3
20260904123542 69 96 0.0 0.9 0.00 0.24 0.00 93 1012.0
20260904122601 69 100 0.0 2.6 0.00 0.24 0.00 93 1011.9
20260904121517 69 96 0.9 2.6 0.00 0.24 0.00 93 1012.2
20260904120533 69 0.0 0.0 0.00 0.24 0.00 93 1012.3
20260904115530 69 0.0 0.0 0.00 0.24 0.00 92 1011.9
20260904114527 69 95 0.0 0.9 0.00 0.24 0.00 92 1011.6
20260904113525 68 95 0.0 0.9 0.00 0.24 0.00 92 1011.8